User: anonymous   Login
Location: Unspecified
(0.0000°N, 0.0000°E)
Time: 03:30:36
(UTC+00:00)
Language:

OPTUS D3 - Orbit

View from above orbital plane
View from above orbital plane
View from above satellite
View from above satellite

Ground track
Ground track

The orbit data is extracted from the following two-line orbital elements,

1 35756U 09044B   14297.65661652 -.00000147  00000-0  00000+0 0  1919
2 35756 000.0603 035.9322 0002779 193.7720 195.6889 01.00272447 18984
Epoch (UTC): 24 October 2014 15:45:31
Eccentricity: 0.0002779
inclination: 0.0603°
perigee height: 35774 km
apogee height: 35798 km
right ascension of ascending node: 35.9322°
argument of perigee: 193.7720°
revolutions per day: 1.00272447
mean anomaly at epoch: 195.6889°
orbit number at epoch: 1898

The dashed part of the orbit path shows where the satellite is in the earth's shadow,  

DLR